リニア彗星

C/2009 T3 ( LINEAR )

English version
Home page
Updated on October 3, 2010

---------------------------------------------------------------------

・ プロフィール

発見日 2009年10月14日
発見光度 19.3等
発見者 Lincoln Laboratory Near-Earth Asteroid Research project

・ 写真集

・ 軌道要素

The following orbital elements are taken from MPC 69416:

Epoch 2010 Jan. 4.0 TT = JDT 2455200.5
T 2010 Jan. 12.0644 TT                                  MPC
q   2.281107             (2000.0)            P               Q
z  +0.000279       Peri.   32.4506      +0.8183413      +0.3577656
                   Node    60.0930      +0.3505468      -0.9309014
e   0.999364       Incl.  148.7415      +0.4554498      +0.0736639
From 357 observations 2009 Oct. 14-2010 Jan. 24.

・ 光度変化

        m1 = 12.5 + 5 logΔ + 10.0 log r

---------------------------------------------------------------------

軌道要素はMPCのEphemerides and Orbital Elementsに掲載されたものです。
光度グラフはComet for Windowsで作成したものです。

---------------------------------------------------------------------

Copyright(C) Seiichi Yoshida (comet@aerith.net). All rights reserved.